sat.trackr.live / text

‹ back to catalog

STARLINK-3852

NORAD 52345 · 2022-045Q

PAYLOAD ACTIVE UNKNOWN

§ Identity

Operator
Country
US
Launch date
2022-04-29
Launch site
AFETR
Launch vehicle
Mass (kg)
RCS (m²)

Purposes: comms

External: N2YO · Heavens-Above · Gunter

§ Orbital elements

Epoch: 2026-05-25T04:22:45.082272Z

Period
95.44 min
Inclination
53.2140°
Eccentricity
0.0001213
Mean motion
15.08836980 rev/d
Perigee alt
538.9 km
Apogee alt
540.6 km
Semi-major
6,917.9 km
B*
4.7680e-5
RAAN
215.8975°
Arg perigee
89.1240°
Mean anomaly
270.9891°
Rev number
22,731

§ Raw data

STARLINK-38521 52345U 22045Q   26145.18246623  .00000471  00000+0  47680-4 0  99922 52345  53.2140 215.8975 0001213  89.1240 270.9891 15.08836980227313

JSON: /api/v1/satellites/52345 · /tle

For live sub-satellite position, see the globe view (requires WebGL).

§ Visibility from observer

Set your observer location to see the next 7 days of passes ≥ 10°. The values pass through the URL so the page stays shareable.

No JS? Fill the form by hand. The geolocation button needs JavaScript.